BEIDOU-3 M16 (C35) (43647 NORAD) Tracking and Keplerian Element Data

This shows tracking and keplerian element data for the satellite.

Feedback or suggestion? Click here.




ElementValue
Catalog43647
NameBEIDOU-3 M16 (C35)
Epoch Orbit4286
Epoch Day34.1946833
Epoch Year2025
RAAN317.4202
Inclination54.5316
Eccentricity0.0007995
Argument of Perigee15.9105
Mean Anonmoly344.148
Mean Motion1.86232148
Decay Rate-7.2E-07
L11 43647U 18078A 25034.19468330 -.00000072 00000+0 00000+0 0 9994
L22 43647 54.5316 317.4202 0007995 15.9105 344.1480 1.86232148 42869



Live tracking and technical data element details for BEIDOU-3 M16 (C35) (NORAD 43647). BEIDOU-3 M16 (C35) can be tracked NOW for your location showing map with azimuth and elevation plus other details from your city location.







IsCatalogInMostPopularTable: catalog: 43647, numindb: 353
Update: records affected: 1



GetName: 43647 BEIDOU-3 M16 (C35)

Hit Count: updated at: Sat, 17 May 2025 09:25:57 GMT